DW6277 Weather Reports


Display with metric or nautical units.
time (UTC)temp
F
wind
direction
speed
MPH
gust
MPH
rain 1hr
in
rain 24hr
in
rain mn
in
humidity
%
barometer
mb
20260905211333 66 295 4.0 14.0 0.00 0.00 0.00 48 1014.3
20260905210338 66 296 3.0 14.0 0.00 0.00 0.00 48 1014.3
20260905205322 66 23 4.0 13.0 0.00 0.00 0.00 48 1013.9
20260905204332 65 316 3.0 12.0 0.00 0.00 0.00 48 1013.7
20260905203349 65 251 2.0 12.0 0.00 0.00 0.00 49 1013.8
20260905202337 65 247 3.0 12.0 0.00 0.00 0.00 50 1013.6
20260905200330 65 245 2.0 10.0 0.00 0.00 0.00 51 1013.0
20260905195325 65 249 2.0 9.0 0.00 0.00 0.00 51 1012.7
20260905194342 65 231 2.0 9.0 0.00 0.00 0.00 53 1013.0
20260905193338 66 257 2.0 7.0 0.00 0.00 0.00 54 1012.5
20260905192336 66 205 3.0 9.0 0.00 0.00 0.00 53 1012.1
20260905191302 67 226 2.0 10.0 0.00 0.00 0.00 52 1011.4
20260905184036 68 243 5.0 24.0 0.00 0.00 0.00 48 1011.0
20260905180716 70 235 4.0 14.0 0.00 0.00 0.00 51 1011.1
20260905173528 71 224 6.0 22.0 0.00 0.00 0.00 51 1010.9
20260905171340 71 245 2.0 9.0 0.00 0.00 0.00 59 1010.5
20260905170357 71 231 3.0 9.0 0.00 0.00 0.00 60 1010.3
20260905165418 72 240 1.0 8.0 0.00 0.00 0.00 60 1010.2
20260905164426 72 228 2.0 7.0 0.00 0.00 0.00 60 1010.0
20260905163423 72 216 2.0 7.0 0.00 0.00 0.00 59 1009.9
20260905162412 73 335 2.0 11.0 0.00 0.00 0.00 58 1009.8
20260905161414 73 278 3.0 15.0 0.00 0.00 0.00 57 1009.6
20260905160421 73 244 4.0 15.0 0.00 0.00 0.00 57 1009.4
20260905155401 73 267 3.0 13.0 0.00 0.00 0.00 58 1009.3
20260905154419 73 221 2.0 8.0 0.00 0.00 0.00 58 1009.2
20260905153424 73 238 2.0 9.0 0.00 0.00 0.00 58 1009.2
20260905152403 73 253 2.0 19.0 0.00 0.00 0.00 58 1009.0
20260905151426 73 340 2.0 19.0 0.00 0.00 0.00 59 1009.1
20260905150449 72 320 1.0 5.0 0.00 0.00 0.00 61 1009.1
20260905145424 72 298 1.0 8.0 0.00 0.00 0.00 62 1009.0
20260905144434 72 255 1.0 9.0 0.00 0.00 0.00 63 1008.9
20260905143419 72 219 2.0 9.0 0.00 0.00 0.00 64 1008.9
20260905142426 71 307 1.0 8.0 0.00 0.00 0.00 66 1008.8
20260905140457 68 259 0.0 2.0 0.00 0.00 0.00 73 1008.5
20260905135514 68 309 0.0 0.0 0.00 0.00 0.00 75 1008.4
20260905134528 68 309 0.0 0.0 0.00 0.00 0.00 74 1008.3
20260905132415 69 309 0.0 0.0 0.00 0.00 0.00 74 1008.2
20260905131354 69 309 0.0 0.0 0.00 0.00 0.00 73 1008.5
20260905130405 70 309 0.0 0.0 0.00 0.00 0.00 72 1008.4
20260905125358 70 273 0.0 0.0 0.00 0.00 0.00 71 1008.3
20260905124346 71 275 0.0 0.0 0.00 0.00 0.00 70 1008.4
20260905123359 71 275 0.0 2.0 0.00 0.00 0.00 69 1008.4
20260905121311 72 295 2.0 9.0 0.00 0.00 0.00 68 1008.4
20260905120335 72 338 4.0 14.0 0.00 0.00 0.00 68 1008.3
20260905114238 73 278 5.0 11.0 0.00 0.00 0.00 67 1007.9
20260905113208 73 22 5.0 15.0 0.00 0.00 0.00 66 1008.1
20260905112228 74 321 5.0 15.0 0.00 0.00 0.00 65 1008.5
20260905104939 75 354 5.0 16.0 0.00 0.00 0.00 63 1008.7
20260905101955 74 326 3.0 10.0 0.00 0.00 0.00 66 1009.2
20260905095859 76 325 4.0 10.0 0.00 0.00 0.00 61 1010.3
20260905094856 76 278 3.0 11.0 0.00 0.00 0.00 61 1010.5
20260905093821 77 359 4.0 13.0 0.00 0.00 0.00 58 1010.5
20260905091707 77 285 3.0 11.0 0.00 0.00 0.00 58 1010.6
20260905085600 77 237 4.0 17.0 0.00 0.00 0.00 58 1010.2
20260905083640 79 230 6.0 17.0 0.00 0.00 0.00 53 1010.1
20260905082658 79 231 7.0 18.0 0.00 0.00 0.00 52 1009.7
20260905081630 80 245 7.0 18.0 0.00 0.00 0.00 51 1009.4
20260905080624 81 247 7.0 21.0 0.00 0.00 0.00 49 1009.4
20260905075631 83 243 7.0 21.0 0.00 0.00 0.00 45 1009.2
20260905074625 86 210 3.0 9.0 0.00 0.00 0.00 38 1008.6
20260905073641 86 0 4.0 13.0 0.00 0.00 0.00 37 1007.4
20260905072642 86 319 5.0 13.0 0.00 0.00 0.00 37 1007.2
20260905064345 88 325 9.0 20.0 0.00 0.00 0.00 35 1006.5
20260905063355 88 64 8.0 23.0 0.00 0.00 0.00 35 1006.5
20260905062345 89 343 8.0 23.0 0.00 0.00 0.00 35 1006.5
20260905061312 89 258 8.0 20.0 0.00 0.00 0.00 35 1006.4
20260905060317 89 326 8.0 19.0 0.00 0.00 0.00 34 1006.4
20260905055331 89 321 7.0 19.0 0.00 0.00 0.00 34 1006.5
20260905054323 89 180 10.0 21.0 0.00 0.00 0.00 33 1006.3
20260905053330 90 309 10.0 22.0 0.00 0.00 0.00 33 1006.4
20260905052343 90 330 9.0 22.0 0.00 0.00 0.00 33 1006.5
20260905050157 89 18 11.0 27.0 0.00 0.00 0.00 34 1006.9
20260905045132 90 288 9.0 21.0 0.00 0.00 0.00 33 1006.8
20260905044107 90 357 8.0 20.0 0.00 0.00 0.00 34 1007.0
20260905043057 90 356 9.0 21.0 0.00 0.00 0.00 34 1007.1
20260905042051 90 290 9.0 21.0 0.00 0.00 0.00 33 1007.4
20260905035924 88 340 1.0 9.0 0.00 0.00 0.00 46 1007.8
20260905034935 87 245 2.0 10.0 0.00 0.00 0.00 54 1008.1
20260905033904 87 335 3.0 10.0 0.00 0.00 0.00 44 1008.4
20260905032849 85 332 2.0 9.0 0.00 0.00 0.00 46 1008.6
20260905031837 78 323 1.0 7.0 0.00 0.00 0.00 55 1008.9
20260905030804 78 91 1.0 6.0 0.00 0.00 0.00 66 1009.3
20260905025748 84 84 1.0 7.0 0.00 0.00 0.00 56 1009.7
20260905023801 82 41 1.0 6.0 0.00 0.00 0.00 52 1010.2
20260905022806 84 101 1.0 5.0 0.00 0.00 0.00 52 1010.6
20260905021738 82 45 2.0 7.0 0.00 0.00 0.00 50 1011.0
20260905015630 81 51 3.0 8.0 0.00 0.00 0.00 50 1011.5
20260905014637 80 8 4.0 8.0 0.00 0.00 0.00 52 1011.8
20260905013632 81 49 4.0 7.0 0.00 0.00 0.00 50 1012.0
20260905012625 83 48 2.0 7.0 0.00 0.00 0.00 47 1012.3
20260905011606 82 321 1.0 10.0 0.00 0.00 0.00 46 1012.6
20260905010536 81 328 2.0 10.0 0.00 0.00 0.00 46 1013.1
20260905004440 79 345 3.0 9.0 0.00 0.00 0.00 48 1013.6
20260905003419 78 46 2.0 9.0 0.00 0.00 0.00 50 1013.8
20260905002440 77 311 3.0 9.0 0.00 0.00 0.00 51 1014.0
20260905001431 77 358 3.0 9.0 0.00 0.00 0.00 51 1014.2
20260905000424 76 339 3.0 10.0 0.00 0.00 0.00 53 1014.5
20260904235400 75 342 4.0 9.0 0.00 0.00 0.00 53 1014.8
20260904234337 74 342 4.0 10.0 0.00 0.00 0.00 55 1014.9
20260904233337 73 278 5.0 10.0 0.00 0.00 0.00 56 1015.0
20260904232307 72 319 4.0 9.0 0.00 0.00 0.00 58 1015.0
20260904230229 71 343 4.0 13.0 0.00 0.00 0.00 60 1015.6
20260904224123 69 301 3.0 12.0 0.00 0.00 0.00 64 1015.7
20260904223148 67 279 4.0 12.0 0.00 0.00 0.00 66 1015.8
20260904222143 67 338 4.0 12.0 0.00 0.00 0.00 67 1015.8
20260904221137 66 242 5.0 10.0 0.00 0.00 0.00 68 1015.8
20260904214953 65 332 4.0 10.0 0.00 0.00 0.00 69 1016.0